Location: WWIN Observatory
(34.8953°N, 91.9583°W)
Time: 13:01:18
(UTC-05:00)

Daily predictions for brighter satellites

Satellite Brightness Start Highest point End
(mag) Time Altitude Azimuth Time Altitude Azimuth Time Altitude Azimuth
Cosmos 2181 Rocket 4.1 20:31:48 10° N 20:38:16 79° E 20:44:36 10° S
H-2A R/B 3.9 20:39:28 10° ESE 20:42:00 15° ENE 20:44:30 10° NNE
OPS 6432 4.3 20:39:39 10° SSW 20:43:25 78° ESE 20:46:36 10° NE
ATLAS 5 CENTAUR R/B 2.9 20:40:37 10° NNW 20:46:29 48° NE 20:52:41 10° SE
Envisat 4.4 20:43:44 10° ESE 20:47:35 22° ENE 20:51:28 10° NNE
USA 186 1.7 20:45:18 10° SSE 20:48:18 68° ENE 20:51:31 10° N
Cosmos 1624 Rocket 4.0 20:44:02 10° S 20:49:15 71° ESE 20:54:32 10° NNE
NOSS 2-2 (E) 3.8 20:45:35 10° SW 20:49:39 72° WNW 20:54:16 10° NNE
CZ-4B DEB 4.3 20:47:21 10° S 20:50:25 38° W 20:53:31 10° NNW
PSLV R/B 4.0 20:48:47 10° WNW 20:52:07 48° NNE 20:55:30 10° E
Cosmos 2074 Rocket 4.1 20:46:23 10° S 20:52:33 63° E 20:58:44 10° NNE
ERBS 3.2 20:49:17 10° NNW 20:52:34 38° NE 20:55:38 11° ESE
COSMOS 2406 3.6 20:48:04 10° N 20:53:36 48° ENE 20:59:05 10° SE
Okean 1-7 3.6 20:50:43 10° NNW 20:54:58 62° W 20:59:15 10° S
GPS 2-05 Rocket1 3.3 20:53:05 10° SW 20:56:40 46° SSE 21:00:10 10° E
CZ-4 DEB 2.9 20:57:32 10° SSE 21:00:37 52° ENE 21:03:43 10° N
Cosmos 2278 Rocket 3.1 20:57:26 10° SSE 21:02:06 27° ESE 21:06:46 10° NE
Meteosat 1 Rocket2 4.4 20:57:05 10° WSW 21:02:21 48° S 21:10:20 10° E
Abrixas rocket 3.1 20:59:13 10° WNW 21:02:28 43° SW 21:05:28 12° SSE
Resurs 01 Rocket 4.3 21:03:01 10° SW 21:06:09 19° W 21:09:19 10° NW
Cosmos 1844 4.0 21:00:44 10° S 21:06:12 48° ESE 21:11:44 10° NNE
Cosmos 1825 3.8 21:04:36 14° ESE 21:06:22 18° E 21:09:00 10° NE
Cosmos 1844 Rocket 2.7 21:02:00 10° S 21:07:37 68° ESE 21:13:14 10° NNE
ERS-1 Rocket 3.2 21:02:52 10° SSE 21:07:45 53° ENE 21:12:39 10° N
Cosmos 407 Rocket 4.3 21:03:01 10° N 21:07:52 35° ENE 21:11:46 15° SE
Cosmos 1408 4.2 21:06:51 15° ESE 21:08:17 18° E 21:10:50 10° NE
Cosmos 1674 Rocket 3.9 21:07:58 10° N 21:12:16 46° E 21:15:56 13° SSE
Cosmos 1452 Rocket 3.9 21:08:26 10° S 21:13:21 42° ESE 21:18:19 10° NNE
Sich 1 Rocket 3.9 21:10:33 10° SSE 21:14:57 50° E 21:19:24 10° NNE
Meteor 1-10 Rocket 4.3 21:11:29 10° N 21:17:18 68° E 21:22:56 10° SSE
FENGYUN 3A 4.5 21:13:05 10° S 21:18:19 51° W 21:23:33 10° NNW
Cosmos 1190 Rocket 4.1 21:16:28 10° N 21:21:36 60° ENE 21:25:32 17° SSE
Cosmos 1862 4.0 21:19:16 16° SSE 21:22:04 35° E 21:25:48 10° NNE
NOSS 5 (C) 4.3 21:19:00 10° SSW 21:22:42 65° ESE 21:25:51 10° NE
Cosmos 2082 Rocket 4.4 21:23:31 10° NE 21:24:11 10° NE 21:24:51 10° ENE
USA 234 4.2 21:22:09 10° ENE 21:27:03 22° ESE 21:31:55 10° S
Meteor 2-10 Rocket 4.1 21:22:52 10° NNW 21:28:38 69° W 21:34:13 10° S
Cosmos 2341 Rocket 4.3 21:25:01 10° SSE 21:30:55 46° E 21:36:53 10° NNE
CZ-4B R/B 4.5 21:27:09 10° NE 21:31:04 24° E 21:32:07 22° ESE
Coronas F rocket 4.1 21:31:21 10° SW 21:33:23 20° W 21:35:26 10° NNW
Cosmos 1184 Rocket 3.4 21:39:00 35° ESE 21:39:17 35° E 21:42:23 10° NNE
CZ-4 SHROUD 4.3 21:41:31 27° ENE 21:41:33 27° ENE 21:44:15 10° NNE
Cosmos 1975 Rocket 4.0 21:38:08 10° NNE 21:41:56 29° ENE 21:42:50 27° E
Meteor 1-27 Rocket 3.6 21:40:24 10° N 21:45:56 69° E 21:49:19 24° SSE
Cosmos 1908 Rocket 3.5 21:43:42 10° S 21:48:04 85° W 21:52:31 10° N
Cosmos 962 Rocket 4.4 21:43:22 13° S 21:48:50 65° E 21:54:59 10° NNE
Cosmos 1606 2.6 21:45:09 10° N 21:49:05 75° E 21:50:39 35° SSE
PSLV R/B 3.7 21:50:18 39° ENE 21:50:18 39° ENE 21:52:53 10° N
Cosmos 676 Rocket 4.0 21:46:50 10° NNW 21:52:02 68° ENE 21:54:26 32° SE
Cosmos 1782 3.5 21:48:10 10° NNW 21:52:06 53° W 21:54:59 17° SSW
CENTAUR R/B 3.7 21:44:23 10° NW 21:52:07 53° WSW 21:59:04 14° S
deb Chang Zheng 4 4.2 21:49:56 10° N 21:54:16 58° WNW 21:58:37 10° SSW
Cosmos 1378 Rocket 3.4 21:50:59 10° N 21:55:18 70° E 21:56:50 38° SSE
Cosmos 1174 3.5 21:52:34 10° NNW 21:55:33 47° ENE 21:55:33 47° ENE
Cosmos 2084 3.7 21:52:41 10° SW 21:56:31 59° WNW 22:00:18 10° NNE
Cosmos 1939 Rocket 3.5 21:54:41 21° S 21:57:01 51° W 22:00:50 10° NNW
Cosmos 1954 Rocket 4.1 21:52:20 10° N 21:57:29 57° ENE 21:59:24 36° SE
Cosmos 2154 Rocket 4.1 21:52:43 10° S 21:58:56 79° W 22:05:10 10° N
USA 245 4.0 22:00:54 31° ENE 22:00:54 31° ENE 22:03:53 10° N
Atlas Centaur 2 2.0 22:00:50 10° WSW 22:03:38 33° SSW 22:03:38 33° SSW
COS B Rocket 3.5 22:00:58 10° N 22:04:58 65° W 22:06:28 33° SSW
ISS -1.9 22:02:53 10° WSW 22:05:58 40° NW 22:09:03 10° NNE
SL-27 R/B 4.2 22:04:37 10° NW 22:07:47 29° W 22:09:24 20° SW
Cosmos 1238 Rocket 2.4 22:05:12 10° N 22:08:32 89° E 22:08:57 68° S
SPOT 5 3.1 22:06:18 30° S 22:08:57 81° WSW 22:14:20 10° NNW
Terra 3.5 22:09:02 18° ENE 22:09:10 18° ENE 22:12:20 10° NNE
MetOp-B 4.0 22:07:14 36° SSE 22:09:32 82° ENE 22:14:54 10° N
Cosmos 1295 Rocket 4.4 22:06:32 26° S 22:10:16 70° E 22:16:32 10° NNE
UNK 4.4 22:06:12 10° NNE 22:12:25 87° ESE 22:17:05 17° SSW
H-2A R/B 3.2 22:15:27 22° SSW 22:17:41 39° W 22:21:41 10° NNW
COSMOS 2487 2.6 22:17:45 10° NNW 22:21:04 73° N 22:21:04 73° N
Cosmos 489 Rocket 4.4 22:15:44 10° NNW 22:21:57 73° ENE 22:23:54 45° SE
SL-08 RB Rocket 3.9 22:23:17 52° E 22:23:30 52° ENE 22:27:59 10° N
Cosmos 1023 Rocket 4.4 22:19:30 10° NNW 22:24:36 68° ENE 22:25:25 58° ESE
APEX 3.2 22:24:54 80° SW 22:25:06 86° WNW 22:29:46 10° NNE
ARGOS 3.1 22:23:56 52° SE 22:25:07 68° ENE 22:30:26 10° N
Envisat 4.2 22:23:10 18° SSW 22:26:21 36° W 22:31:01 10° NNW
Cosmos 2366 rocket 4.1 22:26:54 47° SE 22:28:18 57° E 22:34:29 10° NNE
ATLAS 5 CENTAUR R/B 4.0 22:25:51 10° NW 22:31:01 28° WSW 22:34:33 17° SSW
GPS 2-05 Rocket1 4.0 22:31:14 10° W 22:33:43 40° W 22:33:43 40° W
YAOGAN 6 3.8 22:41:15 36° W 22:41:15 36° W 22:44:13 10° NNW
OAO 3 Rocket 4.2 22:36:58 10° WSW 22:40:01 35° SW 22:40:01 35° SW
H-2A R/B 2.4 22:44:16 52° ENE 22:44:24 52° ENE 22:49:35 10° N
Okean 2 Rocket 4.3 22:42:49 28° SW 22:44:30 39° W 22:48:40 10° N
Cosmos 2278 Rocket 3.7 22:40:48 10° SW 22:45:58 35° WNW 22:51:09 10° N
Meteor 1-14 Rocket 4.3 22:46:04 46° SSW 22:47:49 75° W 22:53:26 10° N
Meteor 1-18 Rocket 4.5 22:42:45 10° N 22:48:34 55° E 22:48:47 55° E
Cosmos 1833 Rocket 3.3 22:44:35 10° N 22:49:52 41° ENE 22:49:59 41° ENE
Cosmos 614 Rocket 3.8 22:45:31 10° NNW 22:50:29 76° NE 22:50:29 76° NE
Cosmos 1242 Rocket 3.9 22:48:40 10° NNW 22:51:26 38° WNW 22:51:26 38° WNW
Cosmos 2218 Rocket 4.1 22:52:15 43° SSW 22:54:29 75° W 23:00:55 10° N
Cosmos 1140 Rocket 3.8 22:53:23 10° NNW 22:58:23 55° WSW 22:58:42 54° WSW
SPOT 1/Viking Rocket 4.2 22:58:58 43° SW 22:59:46 46° W 23:04:47 10° NNW
Cosmos 2082 Rocket 2.1 23:03:29 10° NNW 23:08:58 77° NE 23:08:58 77° NE
USA 234 3.2 23:03:51 10° NE 23:10:24 80° NW 23:16:55 10° SW
Cosmos 1727 Rocket 3.8 23:07:54 10° N 23:14:06 85° W 23:14:24 81° SSW
Timation 1 Rocket 4.4 23:24:56 72° W 23:25:08 73° WNW 23:31:10 10° NNE
Cosmos 1821 Rocket 4.3 23:46:40 57° NE 23:46:40 57° NE 23:51:43 10° NNE
Terra 3.3 23:47:55 33° WNW 23:47:55 33° WNW 23:51:02 10° NNW
